Darstellungsparameter: Aktuell verwendete Einstellungen:
Skalierung der Graphiken ... ?
xyx+y,   Skalierungsfaktor:      Skalierung: Modus: x, Faktor: 1
Darstellungszeitraum ... ?
Vom - - bis: - -   Zeitraum: 02.12.2008 - 06.12.2008
Min/Max/Avg-Anzeige ... ?
Zeige MMA aktuell
Zeige MMA Monat
Zeige MMA alles
Zeige --A aktuell
Zeige --A Monat
Zeige --A alles
Keine MMA-Anzeige
MMA:
Keine MMA-Graphiken
MMA-Basis: 02.12.2008 - 06.12.2008
Quicknavigation für Darstellung... ?
Tage:      1T, 2T, 3T, 5T -1T -2T -3T -5T +1T +2T +3T +5T
Wochen: 1W, 2W, 3W -1W -2W -3W +1W +2W +3W
Monate: 1M, 3M, 6M -1M -3M -6M +1M +3M +6M
Jahre:    1J, 3J, 5J, 10J -1J -3J -5J -10J +1J +3J +5J +10J
Nutze für die Darstellung ... ?
Originaldaten oder Mittelwerte auf ...
Stundenbasis Tagesbasis Wochenbasis
Monatsbasis Jahresbasis      Datenbasis: Original-Daten
Darstellen als:
Statistik (Auto) Statistik J:M      Darstellung:
Zur Graphik,    zurück zur Übersicht aller Sensoren.
 
Tabellarische Datenbersicht: ?
 
Sensor: Nr:Datum:Temp:Abs-Feuchte:Windchill:Wind:
Aussen-T/F 1 02-12-2008 00:09:02 2.7 C 5.24 g/m*3 2.7 C 0 km/h
2 02-12-2008 00:21:02 2.6 C 5.27 g/m*3 2.6 C 0 km/h
3 02-12-2008 00:33:02 2.5 C 5.23 g/m*3 2.5 C 0 km/h
4 02-12-2008 00:45:02 2.5 C 5.29 g/m*3 2.5 C 0 km/h
5 02-12-2008 00:57:02 2.4 C 5.31 g/m*3 2.4 C 0 km/h
6 02-12-2008 01:09:02 2.4 C 5.31 g/m*3 2.4 C 0 km/h
7 02-12-2008 01:21:02 2.3 C 5.27 g/m*3 2.3 C 0 km/h
8 02-12-2008 01:33:02 2.3 C 5.27 g/m*3 2.3 C 0 km/h
9 02-12-2008 01:45:02 2.3 C 5.27 g/m*3 2.3 C 0 km/h
10 02-12-2008 01:57:02 2.3 C 5.27 g/m*3 2.3 C 0 km/h
11 02-12-2008 02:09:02 2.3 C 5.27 g/m*3 2.3 C 0 km/h
12 02-12-2008 02:21:02 2.3 C 5.27 g/m*3 2.3 C 0 km/h
13 02-12-2008 02:33:03 2.3 C 5.27 g/m*3 2.3 C 0 km/h
14 02-12-2008 02:45:03 2.2 C 5.29 g/m*3 2.2 C 0 km/h
15 02-12-2008 02:57:03 2.2 C 5.29 g/m*3 2.2 C 0 km/h
16 02-12-2008 03:09:03 2.2 C 5.29 g/m*3 2.2 C 0 km/h
17 02-12-2008 03:21:03 2.2 C 5.29 g/m*3 2.2 C 0 km/h
18 02-12-2008 03:33:03 2.2 C 5.29 g/m*3 2.2 C 0 km/h
19 02-12-2008 03:45:03 2.2 C 5.29 g/m*3 2.2 C 0 km/h
20 02-12-2008 03:57:03 2.2 C 5.29 g/m*3 2.2 C 0 km/h
21 02-12-2008 04:09:03 2.2 C 5.29 g/m*3 2.2 C 0 km/h
22 02-12-2008 04:21:03 2.2 C 5.29 g/m*3 2.2 C 0 km/h
23 02-12-2008 04:33:03 2.2 C 5.29 g/m*3 2.2 C 0 km/h
24 02-12-2008 04:45:03 2.2 C 5.29 g/m*3 2.2 C 0 km/h
25 02-12-2008 04:57:03 2.3 C 5.33 g/m*3 2.3 C 0 km/h
Sensor: Nr:Datum:Temp:Abs-Feuchte:Windchill:Wind:
Aussen-T/F 26 02-12-2008 05:09:03 2.3 C 5.33 g/m*3 2.3 C 0 km/h
27 02-12-2008 05:21:03 2.2 C 5.24 g/m*3 2.2 C 0 km/h
28 02-12-2008 05:33:03 2.1 C 5.26 g/m*3 2.1 C 0 km/h
29 02-12-2008 05:45:03 2.2 C 5.29 g/m*3 2.2 C 0 km/h
30 02-12-2008 05:57:03 2.2 C 5.29 g/m*3 2.2 C 0 km/h
31 02-12-2008 06:09:03 2.2 C 5.35 g/m*3 2.2 C 0 km/h
32 02-12-2008 06:21:04 2.3 C 5.39 g/m*3 2.3 C 0 km/h
33 02-12-2008 06:33:04 2.3 C 5.39 g/m*3 2.3 C 0 km/h
34 02-12-2008 06:45:04 2.3 C 5.39 g/m*3 2.3 C 0 km/h
35 02-12-2008 06:57:04 2.4 C 5.42 g/m*3 2.4 C 0 km/h
36 02-12-2008 07:09:01 2.4 C 5.42 g/m*3 2.4 C 0 km/h
37 02-12-2008 07:21:01 2.4 C 5.42 g/m*3 2.4 C 0 km/h
38 02-12-2008 07:33:01 2.3 C 5.39 g/m*3 2.3 C 0 km/h
39 02-12-2008 07:45:02 2.3 C 5.39 g/m*3 2.3 C 0 km/h
40 02-12-2008 07:57:03 2.3 C 5.39 g/m*3 2.3 C 0 km/h
41 02-12-2008 08:09:02 2.4 C 5.42 g/m*3 2.4 C 0 km/h
42 02-12-2008 08:21:02 2.4 C 5.42 g/m*3 2.4 C 0 km/h
43 02-12-2008 08:33:02 2.4 C 5.42 g/m*3 2.4 C 0 km/h
44 02-12-2008 08:45:02 2.4 C 5.42 g/m*3 2.4 C 0 km/h
45 02-12-2008 08:57:02 2.5 C 5.46 g/m*3 2.5 C 0 km/h
46 02-12-2008 09:09:02 2.6 C 5.5 g/m*3 2.6 C 0 km/h
47 02-12-2008 09:21:02 2.6 C 5.5 g/m*3 2.6 C 0 km/h
48 02-12-2008 09:33:02 2.7 C 5.54 g/m*3 2.7 C 0 km/h
49 02-12-2008 09:45:02 2.7 C 5.48 g/m*3 2.7 C 0 km/h
50 02-12-2008 09:57:02 2.8 C 5.51 g/m*3 2.8 C 0 km/h
Sensor: Nr:Datum:Temp:Abs-Feuchte:Windchill:Wind:
Aussen-T/F 51 02-12-2008 10:09:02 3 C 5.53 g/m*3 3 C 0 km/h
52 02-12-2008 10:21:01 3.1 C 5.57 g/m*3 3.1 C 0 km/h
53 02-12-2008 10:33:02 3.3 C 5.64 g/m*3 3.3 C 0 km/h
54 02-12-2008 10:45:02 3.3 C 5.58 g/m*3 3.3 C 0 km/h
55 02-12-2008 10:57:02 3.4 C 5.62 g/m*3 3.4 C 0 km/h
56 02-12-2008 11:09:02 3.4 C 5.56 g/m*3 3.4 C 0 km/h
57 02-12-2008 11:21:02 3.4 C 5.62 g/m*3 3.4 C 0 km/h
58 02-12-2008 11:33:02 3.6 C 5.69 g/m*3 3.6 C 0 km/h
59 02-12-2008 11:45:02 3.7 C 5.67 g/m*3 3.7 C 0 km/h
60 02-12-2008 11:57:02 3.9 C 5.75 g/m*3 3.9 C 0 km/h
61 02-12-2008 12:09:02 4.3 C 5.77 g/m*3 4.3 C 0 km/h
62 02-12-2008 12:21:02 4.3 C 5.71 g/m*3 4.3 C 0 km/h
63 02-12-2008 12:33:02 4.4 C 5.68 g/m*3 4.4 C 0 km/h
64 02-12-2008 12:45:02 4.4 C 5.62 g/m*3 4.4 C 0 km/h
65 02-12-2008 12:57:02 4.4 C 5.55 g/m*3 4.4 C 0 km/h
66 02-12-2008 13:09:02 4.4 C 5.55 g/m*3 4.4 C 0 km/h
67 02-12-2008 13:21:01 4.2 C 5.35 g/m*3 4.2 C 0 km/h
68 02-12-2008 13:33:02 4.1 C 5.18 g/m*3 4.1 C 0 km/h
69 02-12-2008 13:45:03 4.2 C 5.15 g/m*3 4.2 C 0 km/h
70 02-12-2008 13:57:03 4 C 4.96 g/m*3 4 C 0 km/h
71 02-12-2008 14:09:02 3.8 C 4.96 g/m*3 3.8 C 0 km/h
72 02-12-2008 14:21:02 3.7 C 4.92 g/m*3 3.7 C 0 km/h
73 02-12-2008 14:33:03 3.7 C 4.92 g/m*3 3.7 C 0 km/h
74 02-12-2008 14:45:02 3.7 C 4.86 g/m*3 3.7 C 0 km/h
75 02-12-2008 14:57:02 3.9 C 4.8 g/m*3 3.9 C 0 km/h
Sensor: Nr:Datum:Temp:Abs-Feuchte:Windchill:Wind:
Aussen-T/F 76 02-12-2008 15:09:02 4 C 4.64 g/m*3 4 C 0 km/h
77 02-12-2008 15:21:01 3.8 C 4.39 g/m*3 3.8 C 0 km/h
78 02-12-2008 15:33:02 3.7 C 4.36 g/m*3 3.7 C 0 km/h
79 02-12-2008 15:45:02 3.6 C 4.27 g/m*3 3.6 C 0 km/h
80 02-12-2008 15:57:02 3.3 C 4.31 g/m*3 3.3 C 0 km/h
81 02-12-2008 16:09:03 3.3 C 4.37 g/m*3 3.3 C 0 km/h
82 02-12-2008 16:21:03 3.3 C 4.43 g/m*3 3.3 C 0 km/h
83 02-12-2008 16:33:02 3.1 C 4.49 g/m*3 3.1 C 0 km/h
84 02-12-2008 16:45:02 2.9 C 4.55 g/m*3 2.9 C 0 km/h
85 02-12-2008 16:57:02 2.8 C 4.69 g/m*3 2.8 C 0 km/h
86 02-12-2008 17:09:02 2.9 C 4.72 g/m*3 2.9 C 0 km/h
87 02-12-2008 17:21:02 2.9 C 4.78 g/m*3 2.9 C 0 km/h
88 02-12-2008 17:33:01 3 C 4.7 g/m*3 3 C 0 km/h
89 02-12-2008 17:45:02 3.1 C 4.61 g/m*3 3.1 C 0 km/h
90 02-12-2008 17:57:02 3.1 C 4.43 g/m*3 3.1 C 0 km/h
91 02-12-2008 18:09:01 3 C 4.28 g/m*3 3 C 0 km/h
92 02-12-2008 18:21:02 2.9 C 4.31 g/m*3 2.9 C 0 km/h
93 02-12-2008 18:33:02 2.7 C 4.25 g/m*3 2.7 C 0 km/h
94 02-12-2008 18:45:02 2.7 C 4.31 g/m*3 2.7 C 0 km/h
95 02-12-2008 18:57:02 2.6 C 4.28 g/m*3 2.6 C 0 km/h
96 02-12-2008 19:09:03 2.6 C 4.34 g/m*3 2.6 C 0 km/h
97 02-12-2008 19:21:02 2.7 C 4.37 g/m*3 2.7 C 0 km/h
98 02-12-2008 19:33:02 2.8 C 4.4 g/m*3 2.8 C 0 km/h
99 02-12-2008 19:45:02 2.8 C 4.46 g/m*3 2.8 C 0 km/h
100 02-12-2008 19:57:02 3 C 4.4 g/m*3 3 C 0 km/h
Sensor: Nr:Datum:Temp:Abs-Feuchte:Windchill:Wind:
Aussen-T/F 101 02-12-2008 20:09:03 3.1 C 4.37 g/m*3 3.1 C 0 km/h
102 02-12-2008 20:21:02 3.1 C 4.37 g/m*3 3.1 C 0 km/h
103 02-12-2008 20:33:02 3 C 4.34 g/m*3 3 C 0 km/h
104 02-12-2008 20:45:02 3 C 4.22 g/m*3 3 C 0 km/h
105 02-12-2008 20:57:02 2.7 C 4.25 g/m*3 2.7 C 0 km/h
106 02-12-2008 21:09:02 2.5 C 4.2 g/m*3 2.5 C 0 km/h
107 02-12-2008 21:21:02 2.3 C 4.2 g/m*3 2.3 C 0 km/h
108 02-12-2008 21:33:02 2.2 C 4.17 g/m*3 2.2 C 0 km/h
109 02-12-2008 21:45:02 1.8 C 4.11 g/m*3 1.8 C 0 km/h
110 02-12-2008 21:57:02 1.5 C 4.08 g/m*3 1.5 C 0 km/h
111 02-12-2008 22:09:02 1.4 C 4.16 g/m*3 1.4 C 0 km/h
112 02-12-2008 22:22:05 1.8 C 4.22 g/m*3 1.8 C 0 km/h
113 02-12-2008 22:34:05 2.2 C 4.11 g/m*3 2.2 C 0 km/h
114 02-12-2008 22:46:05 2.3 C 4.08 g/m*3 2.3 C 0 km/h
115 02-12-2008 22:58:05 2.2 C 4.11 g/m*3 2.2 C 0 km/h
116 02-12-2008 23:10:05 2.3 C 4.08 g/m*3 2.3 C 0 km/h
117 02-12-2008 23:22:05 2.3 C 4.08 g/m*3 2.3 C 0 km/h
118 02-12-2008 23:34:05 2.5 C 4.02 g/m*3 2.5 C 0 km/h
119 02-12-2008 23:46:05 2.7 C 4.02 g/m*3 2.7 C 0 km/h
120 02-12-2008 23:58:05 2.6 C 3.99 g/m*3 2.6 C 0 km/h
121 03-12-2008 00:10:05 2.6 C 3.99 g/m*3 2.6 C 0 km/h
122 03-12-2008 00:22:05 2.7 C 4.02 g/m*3 2.7 C 0 km/h
123 03-12-2008 00:34:05 2.3 C 4.14 g/m*3 2.3 C 0 km/h
124 03-12-2008 00:46:06 1.9 C 4.36 g/m*3 1.9 C 0 km/h
125 03-12-2008 00:58:06 1.7 C 4.52 g/m*3 1.7 C 0 km/h
Sensor: Nr:Datum:Temp:Abs-Feuchte:Windchill:Wind:
Aussen-T/F 126 03-12-2008 01:10:06 1.8 C 4.66 g/m*3 1.8 C 0 km/h
127 03-12-2008 01:22:06 1.7 C 4.68 g/m*3 1.7 C 0 km/h
128 03-12-2008 01:34:06 1.8 C 4.77 g/m*3 1.8 C 0 km/h
129 03-12-2008 01:46:06 1.9 C 4.8 g/m*3 1.9 C 0 km/h
130 03-12-2008 01:58:06 2 C 4.78 g/m*3 2 C 0 km/h
131 03-12-2008 02:10:06 1.6 C 4.76 g/m*3 1.6 C 0 km/h
132 03-12-2008 02:22:06 1.7 C 4.85 g/m*3 1.7 C 0 km/h
133 03-12-2008 02:34:06 1.7 C 4.85 g/m*3 1.7 C 0 km/h
134 03-12-2008 02:46:06 1.7 C 4.85 g/m*3 1.7 C 0 km/h
135 03-12-2008 02:58:06 2 C 4.95 g/m*3 2 C 0 km/h
136 03-12-2008 03:10:06 1.9 C 4.97 g/m*3 1.9 C 0 km/h
137 03-12-2008 03:22:06 1.9 C 4.97 g/m*3 1.9 C 0 km/h
138 03-12-2008 03:34:06 1.9 C 4.97 g/m*3 1.9 C 0 km/h
139 03-12-2008 03:46:06 2 C 5 g/m*3 2 C 0 km/h
140 03-12-2008 03:58:06 2 C 5 g/m*3 2 C 0 km/h
141 03-12-2008 04:10:07 2 C 5 g/m*3 2 C 0 km/h
142 03-12-2008 04:22:07 2 C 5 g/m*3 2 C 0 km/h
143 03-12-2008 04:34:07 2 C 5.06 g/m*3 2 C 0 km/h
144 03-12-2008 04:46:07 2 C 5.06 g/m*3 2 C 0 km/h
145 03-12-2008 04:58:07 2 C 5.06 g/m*3 2 C 0 km/h
146 03-12-2008 05:10:07 2 C 5.06 g/m*3 2 C 0 km/h
147 03-12-2008 05:22:07 2 C 5.06 g/m*3 2 C 0 km/h
148 03-12-2008 05:34:07 2 C 5.06 g/m*3 2 C 0 km/h
149 03-12-2008 05:46:07 2 C 5.11 g/m*3 2 C 0 km/h
150 03-12-2008 05:58:07 2.2 C 5.18 g/m*3 2.2 C 0 km/h
Sensor: Nr:Datum:Temp:Abs-Feuchte:Windchill:Wind:
Aussen-T/F 151 03-12-2008 06:10:07 2.1 C 5.09 g/m*3 2.1 C 0 km/h
152 03-12-2008 06:22:07 2.1 C 5.09 g/m*3 2.1 C 0 km/h
153 03-12-2008 06:34:05 2.1 C 5.09 g/m*3 2.1 C 0 km/h
154 03-12-2008 06:46:03 2.1 C 5.09 g/m*3 2.1 C 0 km/h
155 03-12-2008 06:58:03 2.1 C 5.09 g/m*3 2.1 C 0 km/h
156 03-12-2008 07:10:03 2.1 C 5.09 g/m*3 2.1 C 0 km/h
157 03-12-2008 07:22:03 2.1 C 5.09 g/m*3 2.1 C 0 km/h
158 03-12-2008 07:34:02 2.1 C 5.09 g/m*3 2.1 C 0 km/h
159 03-12-2008 07:46:02 2.1 C 5.09 g/m*3 2.1 C 0 km/h
160 03-12-2008 07:58:02 2.1 C 5.09 g/m*3 2.1 C 0 km/h
161 03-12-2008 08:10:01 2.1 C 5.09 g/m*3 2.1 C 0 km/h
162 03-12-2008 08:22:02 2 C 5.06 g/m*3 2 C 0 km/h
163 03-12-2008 08:34:01 2 C 5.06 g/m*3 2 C 0 km/h
164 03-12-2008 08:46:01 2.1 C 5.09 g/m*3 2.1 C 0 km/h
165 03-12-2008 08:58:01 2.1 C 5.04 g/m*3 2.1 C 0 km/h
166 03-12-2008 09:10:02 2.1 C 5.04 g/m*3 2.1 C 0 km/h
167 03-12-2008 09:22:02 2.2 C 5.07 g/m*3 2.2 C 0 km/h
168 03-12-2008 09:34:02 2.2 C 5.07 g/m*3 2.2 C 0 km/h
169 03-12-2008 09:46:02 2.2 C 5.07 g/m*3 2.2 C 0 km/h
170 03-12-2008 09:58:02 2.3 C 5.1 g/m*3 2.3 C 0 km/h
171 03-12-2008 10:10:03 2.4 C 5.14 g/m*3 2.4 C 0 km/h
172 03-12-2008 10:22:02 2.4 C 5.08 g/m*3 2.4 C 0 km/h
173 03-12-2008 10:34:02 2.5 C 5.12 g/m*3 2.5 C 0 km/h
174 03-12-2008 10:46:02 2.6 C 5.15 g/m*3 2.6 C 0 km/h
175 03-12-2008 10:58:02 2.6 C 5.15 g/m*3 2.6 C 0 km/h
Sensor: Nr:Datum:Temp:Abs-Feuchte:Windchill:Wind:
Aussen-T/F 176 03-12-2008 11:10:01 2.7 C 5.19 g/m*3 2.7 C 0 km/h
177 03-12-2008 11:22:02 2.7 C 5.19 g/m*3 2.7 C 0 km/h
178 03-12-2008 11:34:01 2.8 C 5.28 g/m*3 2.8 C 0 km/h
179 03-12-2008 11:46:02 2.7 C 5.24 g/m*3 2.7 C 0 km/h
180 03-12-2008 11:58:02 2.7 C 5.24 g/m*3 2.7 C 0 km/h
181 03-12-2008 12:10:01 2.7 C 5.24 g/m*3 2.7 C 0 km/h
182 03-12-2008 12:22:02 2.7 C 5.24 g/m*3 2.7 C 0 km/h
183 03-12-2008 12:34:01 2.7 C 5.3 g/m*3 2.7 C 0 km/h
184 03-12-2008 12:46:01 2.7 C 5.36 g/m*3 2.7 C 0 km/h
185 03-12-2008 12:58:01 2.7 C 5.36 g/m*3 2.7 C 0 km/h
186 03-12-2008 13:10:01 2.6 C 5.32 g/m*3 2.6 C 0 km/h
187 03-12-2008 13:22:01 2.6 C 5.32 g/m*3 2.6 C 0 km/h
188 03-12-2008 13:34:01 2.5 C 5.29 g/m*3 2.5 C 0 km/h
189 03-12-2008 13:46:01 2.6 C 5.32 g/m*3 2.6 C 0 km/h
190 03-12-2008 13:58:01 2.6 C 5.32 g/m*3 2.6 C 0 km/h
191 03-12-2008 14:10:02 2.6 C 5.27 g/m*3 2.6 C 0 km/h
192 03-12-2008 14:22:01 2.6 C 5.32 g/m*3 2.6 C 0 km/h
193 03-12-2008 14:34:01 2.2 C 5.13 g/m*3 2.2 C 0 km/h
194 03-12-2008 14:46:02 1.9 C 5.02 g/m*3 1.9 C 0 km/h
195 03-12-2008 14:58:02 2 C 5.06 g/m*3 2 C 0 km/h
196 03-12-2008 15:10:02 2 C 5.06 g/m*3 2 C 0 km/h
197 03-12-2008 15:22:01 2 C 5.11 g/m*3 2 C 0 km/h
198 03-12-2008 15:34:02 2.1 C 5.15 g/m*3 2.1 C 0 km/h
199 03-12-2008 15:46:02 2 C 5.11 g/m*3 2 C 0 km/h
200 03-12-2008 15:58:03 2 C 5.17 g/m*3 2 C 0 km/h
Sensor: Nr:Datum:Temp:Abs-Feuchte:Windchill:Wind:
Aussen-T/F 201 03-12-2008 16:10:02 2 C 5.17 g/m*3 2 C 0 km/h
202 03-12-2008 16:22:02 1.9 C 5.13 g/m*3 1.9 C 0 km/h
203 03-12-2008 16:34:02 1.9 C 5.13 g/m*3 1.9 C 0 km/h
204 03-12-2008 16:46:02 1.9 C 5.13 g/m*3 1.9 C 0 km/h
205 03-12-2008 16:58:02 1.8 C 5.1 g/m*3 1.8 C 0 km/h
206 03-12-2008 17:10:01 1.8 C 5.1 g/m*3 1.8 C 0 km/h
207 03-12-2008 17:22:02 1.7 C 5.06 g/m*3 1.7 C 0 km/h
208 03-12-2008 17:34:01 1.7 C 5.06 g/m*3 1.7 C 0 km/h
209 03-12-2008 17:46:01 1.7 C 5.06 g/m*3 1.7 C 0 km/h
210 03-12-2008 17:58:01 1.6 C 4.97 g/m*3 1.6 C 0 km/h
211 03-12-2008 18:10:02 1.6 C 4.97 g/m*3 1.6 C 0 km/h
212 03-12-2008 18:22:01 1.6 C 4.97 g/m*3 1.6 C 0 km/h
213 03-12-2008 18:34:01 1.7 C 5.01 g/m*3 1.7 C 0 km/h
214 03-12-2008 18:46:03 1.6 C 4.92 g/m*3 1.6 C 0 km/h
215 03-12-2008 18:58:03 1.5 C 4.83 g/m*3 1.5 C 0 km/h
216 03-12-2008 19:10:02 1.6 C 4.81 g/m*3 1.6 C 0 km/h
217 03-12-2008 19:22:03 1.5 C 4.73 g/m*3 1.5 C 0 km/h
218 03-12-2008 19:34:02 1.4 C 4.64 g/m*3 1.4 C 0 km/h
219 03-12-2008 19:46:02 1.3 C 4.45 g/m*3 1.3 C 0 km/h
220 03-12-2008 19:58:02 1.3 C 4.4 g/m*3 1.3 C 0 km/h
221 03-12-2008 20:10:02 1.4 C 4.43 g/m*3 1.4 C 0 km/h
222 03-12-2008 20:22:02 1.4 C 4.43 g/m*3 1.4 C 0 km/h
223 03-12-2008 20:34:03 0.9 C 4.38 g/m*3 0.9 C 0 km/h
224 03-12-2008 20:46:02 0.6 C 4.34 g/m*3 0.6 C 0 km/h
225 03-12-2008 20:58:02 0.5 C 4.41 g/m*3 0.5 C 0 km/h
Sensor: Nr:Datum:Temp:Abs-Feuchte:Windchill:Wind:
Aussen-T/F 226 03-12-2008 21:10:02 0.2 C 4.32 g/m*3 0.2 C 0 km/h
227 03-12-2008 21:22:02 0.2 C 4.37 g/m*3 0.2 C 0 km/h
228 03-12-2008 21:34:02 0.2 C 4.42 g/m*3 0.2 C 0 km/h
229 03-12-2008 21:46:02 0.3 C 4.5 g/m*3 0.3 C 0 km/h
230 03-12-2008 21:58:02 0.2 C 4.47 g/m*3 0.2 C 0 km/h
231 03-12-2008 22:10:01 0.1 C 4.44 g/m*3 0.1 C 0 km/h
232 03-12-2008 22:22:02 -0.1 C 4.38 g/m*3 -0.1 C 0 km/h
233 03-12-2008 22:34:02 0 C 4.46 g/m*3 0 C 0 km/h
234 03-12-2008 22:47:01 -0.3 C 4.37 g/m*3 -0.3 C 0 km/h
235 03-12-2008 22:59:01 -0.3 C 4.41 g/m*3 -0.3 C 0 km/h
236 03-12-2008 23:11:01 -0.1 C 4.52 g/m*3 -0.1 C 0 km/h
237 03-12-2008 23:23:02 0 C 4.55 g/m*3 0 C 0 km/h
238 03-12-2008 23:35:02 0.2 C 4.67 g/m*3 0.2 C 0 km/h
239 03-12-2008 23:47:02 0.3 C 4.7 g/m*3 0.3 C 0 km/h
240 03-12-2008 23:59:02 0.2 C 4.62 g/m*3 0.2 C 0 km/h
241 04-12-2008 00:11:02 0.2 C 4.62 g/m*3 0.2 C 0 km/h
242 04-12-2008 00:23:02 0.1 C 4.59 g/m*3 0.1 C 0 km/h
243 04-12-2008 00:35:02 -0.2 C 4.44 g/m*3 -0.2 C 0 km/h
244 04-12-2008 00:47:02 -0.1 C 4.47 g/m*3 -0.1 C 0 km/h
245 04-12-2008 00:59:02 -0.2 C 4.44 g/m*3 -0.2 C 0 km/h
246 04-12-2008 01:11:02 -0.3 C 4.41 g/m*3 -0.3 C 0 km/h
247 04-12-2008 01:23:02 -0.2 C 4.44 g/m*3 -0.2 C 0 km/h
248 04-12-2008 01:35:02 -0.4 C 4.34 g/m*3 -0.4 C 0 km/h
249 04-12-2008 01:47:02 -0.4 C 4.34 g/m*3 -0.4 C 0 km/h
250 04-12-2008 01:59:02 -0.3 C 4.37 g/m*3 -0.3 C 0 km/h
Sensor: Nr:Datum:Temp:Abs-Feuchte:Windchill:Wind:
Aussen-T/F 251 04-12-2008 02:11:02 -0.4 C 4.29 g/m*3 -0.4 C 0 km/h
252 04-12-2008 02:23:02 -0.5 C 4.26 g/m*3 -0.5 C 0 km/h
253 04-12-2008 02:35:02 -0.5 C 4.26 g/m*3 -0.5 C 0 km/h
254 04-12-2008 02:47:02 -0.5 C 4.21 g/m*3 -0.5 C 0 km/h
255 04-12-2008 02:59:02 -0.5 C 4.21 g/m*3 -0.5 C 0 km/h
256 04-12-2008 03:11:03 -0.3 C 4.27 g/m*3 -0.3 C 0 km/h
257 04-12-2008 03:23:03 -0.3 C 4.22 g/m*3 -0.3 C 0 km/h
258 04-12-2008 03:35:03 -0.3 C 4.22 g/m*3 -0.3 C 0 km/h
259 04-12-2008 03:47:03 -0.3 C 4.22 g/m*3 -0.3 C 0 km/h
260 04-12-2008 03:59:03 -0.4 C 4.15 g/m*3 -0.4 C 0 km/h
261 04-12-2008 04:11:03 -0.6 C 4.09 g/m*3 -0.6 C 0 km/h
262 04-12-2008 04:23:03 -0.7 C 4.02 g/m*3 -0.7 C 0 km/h
263 04-12-2008 04:35:03 -0.9 C 3.96 g/m*3 -0.9 C 0 km/h
264 04-12-2008 04:47:03 -1 C 3.93 g/m*3 -1 C 0 km/h
265 04-12-2008 04:59:03 -1.1 C 3.91 g/m*3 -1.1 C 0 km/h
266 04-12-2008 05:11:03 -0.9 C 3.96 g/m*3 -0.9 C 0 km/h
267 04-12-2008 05:23:03 -0.9 C 3.96 g/m*3 -0.9 C 0 km/h
268 04-12-2008 05:35:03 -0.8 C 3.99 g/m*3 -0.8 C 0 km/h
269 04-12-2008 05:47:03 -0.8 C 3.99 g/m*3 -0.8 C 0 km/h
270 04-12-2008 05:59:03 -0.8 C 4.03 g/m*3 -0.8 C 0 km/h
271 04-12-2008 06:11:03 -0.6 C 4.09 g/m*3 -0.6 C 0 km/h
272 04-12-2008 06:23:03 -0.6 C 4.09 g/m*3 -0.6 C 0 km/h
273 04-12-2008 06:35:03 -0.5 C 4.12 g/m*3 -0.5 C 0 km/h
274 04-12-2008 06:47:03 -0.4 C 4.15 g/m*3 -0.4 C 0 km/h
275 04-12-2008 06:59:03 -0.4 C 4.15 g/m*3 -0.4 C 0 km/h
Sensor: Nr:Datum:Temp:Abs-Feuchte:Windchill:Wind:
Aussen-T/F 276 04-12-2008 07:11:01 -0.4 C 4.15 g/m*3 -0.4 C 0 km/h
277 04-12-2008 07:23:02 -0.3 C 4.18 g/m*3 -0.3 C 0 km/h
278 04-12-2008 07:35:01 -0.3 C 4.13 g/m*3 -0.3 C 0 km/h
279 04-12-2008 07:47:01 -0.3 C 4.13 g/m*3 -0.3 C 0 km/h
280 04-12-2008 07:59:01 -0.3 C 4.13 g/m*3 -0.3 C 0 km/h
281 04-12-2008 08:11:02 -0.3 C 4.13 g/m*3 -0.3 C 0 km/h
282 04-12-2008 08:23:01 -0.3 C 4.13 g/m*3 -0.3 C 0 km/h
283 04-12-2008 08:35:02 -0.3 C 4.13 g/m*3 -0.3 C 0 km/h
284 04-12-2008 08:47:02 -0.4 C 4.1 g/m*3 -0.4 C 0 km/h
285 04-12-2008 08:59:03 -0.3 C 4.18 g/m*3 -0.3 C 0 km/h
286 04-12-2008 09:11:02 -0.1 C 4.23 g/m*3 -0.1 C 0 km/h
287 04-12-2008 09:23:02 0.1 C 4.29 g/m*3 0.1 C 0 km/h
288 04-12-2008 09:35:02 0.3 C 4.35 g/m*3 0.3 C 0 km/h
289 04-12-2008 09:47:02 0.6 C 4.49 g/m*3 0.6 C 0 km/h
290 04-12-2008 09:59:02 0.8 C 4.56 g/m*3 0.8 C 0 km/h
291 04-12-2008 10:11:02 1 C 4.57 g/m*3 1 C 0 km/h
292 04-12-2008 10:23:02 1.2 C 4.63 g/m*3 1.2 C 0 km/h
293 04-12-2008 10:35:02 1.2 C 4.68 g/m*3 1.2 C 0 km/h
294 04-12-2008 10:47:02 1.5 C 4.78 g/m*3 1.5 C 0 km/h
295 04-12-2008 10:59:02 1.9 C 4.91 g/m*3 1.9 C 0 km/h
296 04-12-2008 11:11:02 2.3 C 5.05 g/m*3 2.3 C 0 km/h
297 04-12-2008 11:23:02 2.8 C 5.22 g/m*3 2.8 C 0 km/h
298 04-12-2008 11:35:02 2.8 C 5.16 g/m*3 2.8 C 0 km/h
299 04-12-2008 11:47:02 2.9 C 5.26 g/m*3 2.9 C 0 km/h
300 04-12-2008 11:59:02 3.1 C 5.33 g/m*3 3.1 C 0 km/h
Sensor: Nr:Datum:Temp:Abs-Feuchte:Windchill:Wind:
Aussen-T/F 301 04-12-2008 12:11:02 3.4 C 5.5 g/m*3 3.4 C 0 km/h
302 04-12-2008 12:23:02 3.6 C 5.63 g/m*3 3.6 C 0 km/h
303 04-12-2008 12:35:02 3.7 C 5.67 g/m*3 3.7 C 0 km/h
304 04-12-2008 12:47:02 3.7 C 5.67 g/m*3 3.7 C 0 km/h
305 04-12-2008 12:59:02 3.5 C 5.6 g/m*3 3.5 C 0 km/h
306 04-12-2008 13:11:03 3.1 C 5.45 g/m*3 3.1 C 0 km/h
307 04-12-2008 13:23:02 3.1 C 5.51 g/m*3 3.1 C 0 km/h
308 04-12-2008 13:35:03 3.1 C 5.57 g/m*3 3.1 C 0 km/h
309 04-12-2008 13:47:02 3.1 C 5.57 g/m*3 3.1 C 0 km/h
310 04-12-2008 13:59:02 3.1 C 5.57 g/m*3 3.1 C 0 km/h
311 04-12-2008 14:11:02 3.2 C 5.66 g/m*3 3.2 C 0 km/h
312 04-12-2008 14:23:02 3.2 C 5.66 g/m*3 3.2 C 0 km/h
313 04-12-2008 14:35:02 3.5 C 5.78 g/m*3 3.5 C 0 km/h
314 04-12-2008 14:47:02 3.5 C 5.78 g/m*3 3.5 C 0 km/h
315 04-12-2008 14:59:03 3.5 C 5.72 g/m*3 3.5 C 0 km/h
316 04-12-2008 15:11:01 3.6 C 5.76 g/m*3 3.6 C 0 km/h
317 04-12-2008 15:23:02 3.5 C 5.66 g/m*3 3.5 C 0 km/h
318 04-12-2008 15:35:01 3.5 C 5.66 g/m*3 3.5 C 0 km/h
319 04-12-2008 15:47:03 3.5 C 5.66 g/m*3 3.5 C 0 km/h
320 04-12-2008 15:59:03 3.5 C 5.66 g/m*3 3.5 C 0 km/h
321 04-12-2008 16:11:02 3.6 C 5.69 g/m*3 3.6 C 0 km/h
322 04-12-2008 16:23:03 3.5 C 5.72 g/m*3 3.5 C 0 km/h
323 04-12-2008 16:35:02 3.6 C 5.76 g/m*3 3.6 C 0 km/h
324 04-12-2008 16:47:03 3.5 C 5.78 g/m*3 3.5 C 0 km/h
325 04-12-2008 16:59:03 3.6 C 5.82 g/m*3 3.6 C 0 km/h
Sensor: Nr:Datum:Temp:Abs-Feuchte:Windchill:Wind:
Aussen-T/F 326 04-12-2008 17:11:02 3.6 C 5.82 g/m*3 3.6 C 0 km/h
327 04-12-2008 17:23:03 3.6 C 5.82 g/m*3 3.6 C 0 km/h
328 04-12-2008 17:35:02 3.5 C 5.78 g/m*3 3.5 C 0 km/h
329 04-12-2008 17:47:01 3.6 C 5.82 g/m*3 3.6 C 0 km/h
330 04-12-2008 17:59:01 3.5 C 5.78 g/m*3 3.5 C 0 km/h
331 04-12-2008 18:11:01 3.5 C 5.78 g/m*3 3.5 C 0 km/h
332 04-12-2008 18:23:01 3.6 C 5.88 g/m*3 3.6 C 0 km/h
333 04-12-2008 18:35:01 3.6 C 5.88 g/m*3 3.6 C 0 km/h
334 04-12-2008 18:47:02 3.7 C 5.92 g/m*3 3.7 C 0 km/h
335 04-12-2008 18:59:02 3.7 C 5.92 g/m*3 3.7 C 0 km/h
336 04-12-2008 19:11:02 3.8 C 5.96 g/m*3 3.8 C 0 km/h
337 04-12-2008 19:23:02 3.8 C 5.96 g/m*3 3.8 C 0 km/h
338 04-12-2008 19:35:02 3.9 C 5.94 g/m*3 3.9 C 0 km/h
339 04-12-2008 19:47:02 4.1 C 6.02 g/m*3 4.1 C 0 km/h
340 04-12-2008 19:59:02 4.1 C 6.02 g/m*3 4.1 C 0 km/h
341 04-12-2008 20:11:02 4 C 5.98 g/m*3 4 C 0 km/h
342 04-12-2008 20:23:02 4 C 5.98 g/m*3 4 C 0 km/h
343 04-12-2008 20:35:02 4.1 C 6.02 g/m*3 4.1 C 0 km/h
344 04-12-2008 20:47:02 4.1 C 6.02 g/m*3 4.1 C 0 km/h
345 04-12-2008 20:59:02 4.2 C 6.06 g/m*3 4.2 C 0 km/h
346 04-12-2008 21:11:02 4.3 C 6.16 g/m*3 4.3 C 0 km/h
347 04-12-2008 21:23:02 4.2 C 6.12 g/m*3 4.2 C 0 km/h
348 04-12-2008 21:35:02 4.3 C 6.16 g/m*3 4.3 C 0 km/h
349 04-12-2008 21:47:02 4.4 C 6.2 g/m*3 4.4 C 0 km/h
350 04-12-2008 21:59:02 4.4 C 6.2 g/m*3 4.4 C 0 km/h
Sensor: Nr:Datum:Temp:Abs-Feuchte:Windchill:Wind:
Aussen-T/F 351 04-12-2008 22:12:03 4.6 C 6.29 g/m*3 4.6 C 0 km/h
352 04-12-2008 22:24:03 4.7 C 6.33 g/m*3 4.7 C 0 km/h
353 04-12-2008 22:36:03 4.8 C 6.37 g/m*3 4.8 C 0 km/h
354 04-12-2008 22:48:03 4.5 C 6.18 g/m*3 4.5 C 0 km/h
355 04-12-2008 23:00:03 4.6 C 6.22 g/m*3 4.6 C 0 km/h
356 04-12-2008 23:12:03 5 C 6.39 g/m*3 5 C 0 km/h
357 04-12-2008 23:24:03 5 C 6.39 g/m*3 5 C 0 km/h
358 04-12-2008 23:36:04 5 C 6.32 g/m*3 5 C 0 km/h
359 04-12-2008 23:48:04 5 C 6.32 g/m*3 5 C 0 km/h
360 05-12-2008 00:00:04 5 C 6.25 g/m*3 5 C 0 km/h
361 05-12-2008 00:12:04 5 C 6.25 g/m*3 5 C 0 km/h
362 05-12-2008 00:24:04 5 C 6.18 g/m*3 5 C 0 km/h
363 05-12-2008 00:36:04 5 C 6.18 g/m*3 5 C 0 km/h
364 05-12-2008 00:48:04 4.9 C 6.21 g/m*3 4.9 C 0 km/h
365 05-12-2008 01:00:04 4.8 C 6.17 g/m*3 4.8 C 0 km/h
366 05-12-2008 01:12:04 4.8 C 6.17 g/m*3 4.8 C 0 km/h
367 05-12-2008 01:24:04 4.4 C 6.01 g/m*3 4.4 C 0 km/h
368 05-12-2008 01:36:04 4.4 C 6.01 g/m*3 4.4 C 0 km/h
369 05-12-2008 01:48:04 4.6 C 6.15 g/m*3 4.6 C 0 km/h
370 05-12-2008 02:00:04 4.7 C 6.19 g/m*3 4.7 C 0 km/h
371 05-12-2008 02:12:04 4.7 C 6.26 g/m*3 4.7 C 0 km/h
372 05-12-2008 02:24:04 4.9 C 6.35 g/m*3 4.9 C 0 km/h
373 05-12-2008 02:36:04 5 C 6.32 g/m*3 5 C 0 km/h
374 05-12-2008 02:48:04 5.2 C 6.4 g/m*3 5.2 C 0 km/h
375 05-12-2008 03:00:04 4.7 C 6.19 g/m*3 4.7 C 0 km/h
Sensor: Nr:Datum:Temp:Abs-Feuchte:Windchill:Wind:
Aussen-T/F 376 05-12-2008 03:12:04 4.8 C 6.24 g/m*3 4.8 C 0 km/h
377 05-12-2008 03:24:04 5 C 6.32 g/m*3 5 C 0 km/h
378 05-12-2008 03:36:04 5.4 C 6.42 g/m*3 5.4 C 0 km/h
379 05-12-2008 03:48:05 5.5 C 6.39 g/m*3 5.5 C 0 km/h
380 05-12-2008 04:00:05 5.5 C 6.32 g/m*3 5.5 C 0 km/h
381 05-12-2008 04:12:05 5.2 C 6.13 g/m*3 5.2 C 0 km/h
382 05-12-2008 04:24:05 5.2 C 6.13 g/m*3 5.2 C 0 km/h
383 05-12-2008 04:36:05 4.9 C 6.08 g/m*3 4.9 C 0 km/h
384 05-12-2008 04:48:05 4.6 C 5.96 g/m*3 4.6 C 0 km/h
385 05-12-2008 05:00:05 4.4 C 5.94 g/m*3 4.4 C 0 km/h
386 05-12-2008 05:12:05 4.4 C 5.94 g/m*3 4.4 C 0 km/h
387 05-12-2008 05:24:05 4.3 C 5.9 g/m*3 4.3 C 0 km/h
388 05-12-2008 05:36:05 4.3 C 5.97 g/m*3 4.3 C 0 km/h
389 05-12-2008 05:48:05 4.4 C 6.01 g/m*3 4.4 C 0 km/h
390 05-12-2008 06:00:05 4.5 C 6.05 g/m*3 4.5 C 0 km/h
391 05-12-2008 06:12:05 4.6 C 6.09 g/m*3 4.6 C 0 km/h
392 05-12-2008 06:24:05 4.6 C 6.15 g/m*3 4.6 C 0 km/h
393 05-12-2008 06:36:04 4.5 C 6.11 g/m*3 4.5 C 0 km/h
394 05-12-2008 06:48:03 4.4 C 6.07 g/m*3 4.4 C 0 km/h
395 05-12-2008 07:00:03 4.4 C 6.07 g/m*3 4.4 C 0 km/h
396 05-12-2008 07:12:02 4.4 C 6.07 g/m*3 4.4 C 0 km/h
397 05-12-2008 07:24:03 4.3 C 6.03 g/m*3 4.3 C 0 km/h
398 05-12-2008 07:36:02 4.1 C 5.95 g/m*3 4.1 C 0 km/h
399 05-12-2008 07:48:02 4.1 C 5.95 g/m*3 4.1 C 0 km/h
400 05-12-2008 08:00:02 4.2 C 5.99 g/m*3 4.2 C 0 km/h
Sensor: Nr:Datum:Temp:Abs-Feuchte:Windchill:Wind:
Aussen-T/F 401 05-12-2008 08:12:02 4.3 C 6.03 g/m*3 4.3 C 0 km/h
402 05-12-2008 08:24:02 4.4 C 6.07 g/m*3 4.4 C 0 km/h
403 05-12-2008 08:36:02 4.3 C 6.03 g/m*3 4.3 C 0 km/h
404 05-12-2008 08:48:01 4.4 C 6.07 g/m*3 4.4 C 0 km/h
405 05-12-2008 09:00:01 4.5 C 6.11 g/m*3 4.5 C 0 km/h
406 05-12-2008 09:12:02 4.6 C 6.15 g/m*3 4.6 C 0 km/h
407 05-12-2008 09:24:01 5 C 6.18 g/m*3 5 C 0 km/h
408 05-12-2008 09:36:02 5.2 C 6.2 g/m*3 5.2 C 0 km/h
409 05-12-2008 09:48:02 5.3 C 6.17 g/m*3 5.3 C 0 km/h
410 05-12-2008 10:00:02 5.6 C 6.22 g/m*3 5.6 C 0 km/h
411 05-12-2008 10:12:02 5.7 C 6.26 g/m*3 5.7 C 0 km/h
412 05-12-2008 10:24:02 6 C 6.17 g/m*3 6 C 0 km/h
413 05-12-2008 10:36:02 6.2 C 6.03 g/m*3 6.2 C 0 km/h
414 05-12-2008 10:48:02 6.3 C 6 g/m*3 6.3 C 0 km/h
415 05-12-2008 11:00:02 6.5 C 5.85 g/m*3 6.5 C 0 km/h
416 05-12-2008 11:12:02 6.5 C 5.85 g/m*3 6.5 C 0 km/h
417 05-12-2008 11:24:02 6.5 C 5.85 g/m*3 6.5 C 0 km/h
418 05-12-2008 11:36:02 6.3 C 5.85 g/m*3 6.3 C 0 km/h
419 05-12-2008 11:48:01 6.1 C 5.84 g/m*3 6.1 C 0 km/h
420 05-12-2008 12:00:01 5.8 C 5.8 g/m*3 5.8 C 0 km/h
421 05-12-2008 12:12:02 5.7 C 5.84 g/m*3 5.7 C 0 km/h
422 05-12-2008 12:24:01 5.7 C 5.69 g/m*3 5.7 C 0 km/h
423 05-12-2008 12:36:02 6 C 5.66 g/m*3 6 C 0 km/h
424 05-12-2008 12:48:02 6.3 C 5.63 g/m*3 6.3 C 0 km/h
425 05-12-2008 13:00:02 6.5 C 5.62 g/m*3 6.5 C 0 km/h
Sensor: Nr:Datum:Temp:Abs-Feuchte:Windchill:Wind:
Aussen-T/F 426 05-12-2008 13:12:02 6.9 C 5.7 g/m*3 6.9 C 0 km/h
427 05-12-2008 13:24:02 7 C 5.58 g/m*3 7 C 0 km/h
428 05-12-2008 13:36:02 7.1 C 5.54 g/m*3 7.1 C 0 km/h
429 05-12-2008 13:48:02 7.1 C 5.46 g/m*3 7.1 C 0 km/h
430 05-12-2008 14:00:02 7.5 C 5.6 g/m*3 7.5 C 0 km/h
431 05-12-2008 14:12:02 7.5 C 5.44 g/m*3 7.5 C 0 km/h
432 05-12-2008 14:24:02 7.4 C 5.49 g/m*3 7.4 C 0 km/h
433 05-12-2008 14:36:02 7.4 C 5.49 g/m*3 7.4 C 0 km/h
434 05-12-2008 14:48:01 7.3 C 5.53 g/m*3 7.3 C 0 km/h
435 05-12-2008 15:00:01 7.4 C 5.57 g/m*3 7.4 C 0 km/h
436 05-12-2008 15:12:02 7.2 C 5.49 g/m*3 7.2 C 0 km/h
437 05-12-2008 15:24:01 7.3 C 5.53 g/m*3 7.3 C 0 km/h
438 05-12-2008 15:36:02 7.5 C 5.6 g/m*3 7.5 C 0 km/h
439 05-12-2008 15:48:02 7.4 C 5.49 g/m*3 7.4 C 0 km/h
440 05-12-2008 16:00:03 7.2 C 5.42 g/m*3 7.2 C 0 km/h
441 05-12-2008 16:12:02 7.1 C 5.46 g/m*3 7.1 C 0 km/h
442 05-12-2008 16:24:02 6.7 C 5.55 g/m*3 6.7 C 0 km/h
443 05-12-2008 16:36:02 6.4 C 5.59 g/m*3 6.4 C 0 km/h
444 05-12-2008 16:48:02 6.3 C 5.7 g/m*3 6.3 C 0 km/h
445 05-12-2008 17:00:02 5.9 C 5.7 g/m*3 5.9 C 0 km/h
446 05-12-2008 17:12:02 5.6 C 5.8 g/m*3 5.6 C 0 km/h
447 05-12-2008 17:24:02 5.5 C 5.97 g/m*3 5.5 C 0 km/h
448 05-12-2008 17:36:02 5.2 C 5.99 g/m*3 5.2 C 0 km/h
449 05-12-2008 17:48:03 5 C 5.98 g/m*3 5 C 0 km/h
450 05-12-2008 18:00:03 4.9 C 6.01 g/m*3 4.9 C 0 km/h
Sensor: Nr:Datum:Temp:Abs-Feuchte:Windchill:Wind:
Aussen-T/F 451 05-12-2008 18:12:06 4.8 C 6.04 g/m*3 4.8 C 0 km/h
452 05-12-2008 18:24:03 4.7 C 6.06 g/m*3 4.7 C 0 km/h
453 05-12-2008 18:36:06 4.6 C 6.09 g/m*3 4.6 C 0 km/h
454 05-12-2008 18:48:16 4.8 C 6.24 g/m*3 4.8 C 0 km/h
455 05-12-2008 19:00:16 5 C 6.25 g/m*3 5 C 0 km/h
456 05-12-2008 19:12:02 5 C 6.25 g/m*3 5 C 0 km/h
457 05-12-2008 19:24:02 5 C 6.25 g/m*3 5 C 0 km/h
458 05-12-2008 19:36:04 5 C 6.25 g/m*3 5 C 0 km/h
459 05-12-2008 19:48:03 5 C 6.25 g/m*3 5 C 0 km/h
460 05-12-2008 20:00:03 5 C 6.25 g/m*3 5 C 0 km/h
461 05-12-2008 20:12:03 4.7 C 6.06 g/m*3 4.7 C 0 km/h
462 05-12-2008 20:24:03 4.7 C 6.06 g/m*3 4.7 C 0 km/h
463 05-12-2008 20:36:02 4.8 C 6.1 g/m*3 4.8 C 0 km/h
464 05-12-2008 20:48:02 5 C 6.05 g/m*3 5 C 0 km/h
465 05-12-2008 21:00:03 5.1 C 6.09 g/m*3 5.1 C 0 km/h
466 05-12-2008 21:12:02 5.2 C 6.06 g/m*3 5.2 C 0 km/h
467 05-12-2008 21:24:02 5.1 C 6.02 g/m*3 5.1 C 0 km/h
468 05-12-2008 21:36:02 5 C 5.98 g/m*3 5 C 0 km/h
469 05-12-2008 21:48:02 4.9 C 6.01 g/m*3 4.9 C 0 km/h
470 05-12-2008 22:00:02 4.9 C 6.01 g/m*3 4.9 C 0 km/h
471 05-12-2008 22:12:02 4.9 C 6.08 g/m*3 4.9 C 0 km/h
472 05-12-2008 22:24:02 4.8 C 6.04 g/m*3 4.8 C 0 km/h
473 05-12-2008 22:37:02 4.9 C 6.14 g/m*3 4.9 C 0 km/h
474 05-12-2008 22:49:02 4.9 C 6.14 g/m*3 4.9 C 0 km/h
475 05-12-2008 23:01:02 5 C 6.12 g/m*3 5 C 0 km/h
Sensor: Nr:Datum:Temp:Abs-Feuchte:Windchill:Wind:
Aussen-T/F 476 05-12-2008 23:13:02 4.9 C 6.14 g/m*3 4.9 C 0 km/h
477 05-12-2008 23:25:02 4.9 C 6.14 g/m*3 4.9 C 0 km/h
478 05-12-2008 23:37:02 5 C 6.12 g/m*3 5 C 0 km/h
479 05-12-2008 23:49:02 5 C 6.05 g/m*3 5 C 0 km/h
480 06-12-2008 00:01:02 4.8 C 5.97 g/m*3 4.8 C 0 km/h
481 06-12-2008 00:13:02 4.6 C 5.89 g/m*3 4.6 C 0 km/h
482 06-12-2008 00:25:02 4.6 C 5.96 g/m*3 4.6 C 0 km/h
483 06-12-2008 00:37:02 4.6 C 6.02 g/m*3 4.6 C 0 km/h
484 06-12-2008 00:49:02 4.5 C 5.98 g/m*3 4.5 C 0 km/h
485 06-12-2008 01:01:02 4.4 C 5.88 g/m*3 4.4 C 0 km/h
486 06-12-2008 01:13:02 4.2 C 5.8 g/m*3 4.2 C 0 km/h
487 06-12-2008 01:25:02 4.1 C 5.76 g/m*3 4.1 C 0 km/h
488 06-12-2008 01:37:02 4 C 5.66 g/m*3 4 C 0 km/h
489 06-12-2008 01:49:02 4 C 5.72 g/m*3 4 C 0 km/h
490 06-12-2008 02:01:02 4.1 C 5.76 g/m*3 4.1 C 0 km/h
491 06-12-2008 02:13:02 4.1 C 5.76 g/m*3 4.1 C 0 km/h
492 06-12-2008 02:25:03 4.3 C 5.77 g/m*3 4.3 C 0 km/h
493 06-12-2008 02:37:03 4.4 C 5.75 g/m*3 4.4 C 0 km/h
494 06-12-2008 02:49:03 4.5 C 5.65 g/m*3 4.5 C 0 km/h
495 06-12-2008 03:01:03 4.6 C 5.62 g/m*3 4.6 C 0 km/h
496 06-12-2008 03:13:03 4.4 C 5.48 g/m*3 4.4 C 0 km/h
497 06-12-2008 03:25:03 4.2 C 5.48 g/m*3 4.2 C 0 km/h
498 06-12-2008 03:37:03 4.4 C 5.62 g/m*3 4.4 C 0 km/h
499 06-12-2008 03:49:03 4.5 C 5.59 g/m*3 4.5 C 0 km/h
500 06-12-2008 04:01:03 4.5 C 5.65 g/m*3 4.5 C 0 km/h
Sensor: Nr:Datum:Temp:Abs-Feuchte:Windchill:Wind:
Aussen-T/F 501 06-12-2008 04:13:03 4.5 C 5.65 g/m*3 4.5 C 0 km/h
502 06-12-2008 04:25:03 4.5 C 5.72 g/m*3 4.5 C 0 km/h
503 06-12-2008 04:37:03 4.6 C 5.69 g/m*3 4.6 C 0 km/h
504 06-12-2008 04:49:03 4.7 C 5.73 g/m*3 4.7 C 0 km/h
505 06-12-2008 05:01:03 4.7 C 5.66 g/m*3 4.7 C 0 km/h
506 06-12-2008 05:13:03 4.7 C 5.66 g/m*3 4.7 C 0 km/h
507 06-12-2008 05:25:03 4.6 C 5.62 g/m*3 4.6 C 0 km/h
508 06-12-2008 05:37:03 4.5 C 5.59 g/m*3 4.5 C 0 km/h
509 06-12-2008 05:49:03 4.8 C 5.63 g/m*3 4.8 C 0 km/h
510 06-12-2008 06:01:03 4.7 C 5.6 g/m*3 4.7 C 0 km/h
511 06-12-2008 06:13:03 4.8 C 5.63 g/m*3 4.8 C 0 km/h
512 06-12-2008 06:25:03 5 C 5.64 g/m*3 5 C 0 km/h
513 06-12-2008 06:37:04 4.8 C 5.63 g/m*3 4.8 C 0 km/h
514 06-12-2008 06:49:04 4.8 C 5.63 g/m*3 4.8 C 0 km/h
515 06-12-2008 07:01:04 4.8 C 5.63 g/m*3 4.8 C 0 km/h
516 06-12-2008 07:13:04 4.7 C 5.66 g/m*3 4.7 C 0 km/h
517 06-12-2008 07:25:04 4.8 C 5.7 g/m*3 4.8 C 0 km/h
518 06-12-2008 07:37:04 4.7 C 5.73 g/m*3 4.7 C 0 km/h
519 06-12-2008 07:49:04 4.6 C 5.69 g/m*3 4.6 C 0 km/h
520 06-12-2008 08:01:04 4.6 C 5.82 g/m*3 4.6 C 0 km/h
521 06-12-2008 08:13:04 4.5 C 5.78 g/m*3 4.5 C 0 km/h
522 06-12-2008 08:25:02 4.4 C 5.81 g/m*3 4.4 C 0 km/h
523 06-12-2008 08:37:02 4.4 C 5.88 g/m*3 4.4 C 0 km/h
524 06-12-2008 08:49:02 4.4 C 5.94 g/m*3 4.4 C 0 km/h
525 06-12-2008 09:01:37 4.5 C 5.98 g/m*3 4.5 C 0 km/h
Sensor: Nr:Datum:Temp:Abs-Feuchte:Windchill:Wind:
Aussen-T/F 526 06-12-2008 09:13:37 4.5 C 5.98 g/m*3 4.5 C 0 km/h
527 06-12-2008 09:25:37 4.5 C 5.98 g/m*3 4.5 C 0 km/h
528 06-12-2008 09:37:37 4.6 C 6.02 g/m*3 4.6 C 0 km/h
529 06-12-2008 09:49:37 4.6 C 6.02 g/m*3 4.6 C 0 km/h
530 06-12-2008 10:01:37 4.8 C 6.1 g/m*3 4.8 C 0 km/h
531 06-12-2008 10:13:37 5 C 6.12 g/m*3 5 C 0 km/h
532 06-12-2008 10:25:37 5.3 C 6.17 g/m*3 5.3 C 0 km/h
533 06-12-2008 10:37:37 5.4 C 6.07 g/m*3 5.4 C 0 km/h
534 06-12-2008 10:49:37 5.4 C 5.93 g/m*3 5.4 C 0 km/h
535 06-12-2008 11:01:37 5.4 C 5.79 g/m*3 5.4 C 0 km/h
536 06-12-2008 11:13:37 5.5 C 5.76 g/m*3 5.5 C 0 km/h
537 06-12-2008 11:25:38 5.7 C 5.84 g/m*3 5.7 C 0 km/h
538 06-12-2008 11:37:38 5.9 C 5.84 g/m*3 5.9 C 0 km/h
539 06-12-2008 11:49:38 6 C 5.66 g/m*3 6 C 0 km/h
540 06-12-2008 12:01:38 5.9 C 5.7 g/m*3 5.9 C 0 km/h
541 06-12-2008 12:13:38 5.7 C 5.62 g/m*3 5.7 C 0 km/h
542 06-12-2008 12:25:38 5.7 C 5.62 g/m*3 5.7 C 0 km/h
543 06-12-2008 12:37:38 5.5 C 5.62 g/m*3 5.5 C 0 km/h
544 06-12-2008 12:49:38 5.3 C 5.61 g/m*3 5.3 C 0 km/h
545 06-12-2008 13:01:38 5.2 C 5.71 g/m*3 5.2 C 0 km/h
546 06-12-2008 13:13:38 5.2 C 5.85 g/m*3 5.2 C 0 km/h
547 06-12-2008 13:25:38 5.1 C 5.75 g/m*3 5.1 C 0 km/h
548 06-12-2008 13:37:38 4.9 C 5.87 g/m*3 4.9 C 0 km/h
549 06-12-2008 13:49:38 4.9 C 5.94 g/m*3 4.9 C 0 km/h
550 06-12-2008 14:01:38 4.9 C 5.87 g/m*3 4.9 C 0 km/h
Sensor: Nr:Datum:Temp:Abs-Feuchte:Windchill:Wind:
Aussen-T/F 551 06-12-2008 14:13:38 5.1 C 5.95 g/m*3 5.1 C 0 km/h
552 06-12-2008 14:25:38 5.2 C 5.92 g/m*3 5.2 C 0 km/h
553 06-12-2008 14:37:38 5.3 C 5.96 g/m*3 5.3 C 0 km/h
554 06-12-2008 14:49:38 5.3 C 5.89 g/m*3 5.3 C 0 km/h
555 06-12-2008 15:01:01 5.3 C 5.89 g/m*3 5.3 C 0 km/h
556 06-12-2008 15:13:01 5.2 C 5.85 g/m*3 5.2 C 0 km/h
557 06-12-2008 15:25:02 5.2 C 5.92 g/m*3 5.2 C 0 km/h
558 06-12-2008 15:37:03 5.2 C 5.92 g/m*3 5.2 C 0 km/h
559 06-12-2008 15:49:02 5.2 C 5.92 g/m*3 5.2 C 0 km/h
560 06-12-2008 16:01:08 5 C 5.84 g/m*3 5 C 0 km/h
561 06-12-2008 16:13:08 5 C 5.91 g/m*3 5 C 0 km/h
562 06-12-2008 16:25:02 5 C 5.98 g/m*3 5 C 0 km/h
563 06-12-2008 16:37:01 5 C 5.98 g/m*3 5 C 0 km/h
564 06-12-2008 16:49:02 5 C 5.98 g/m*3 5 C 0 km/h
565 06-12-2008 17:01:01 5 C 6.05 g/m*3 5 C 0 km/h
566 06-12-2008 17:13:01 5 C 6.05 g/m*3 5 C 0 km/h
567 06-12-2008 17:25:01 5 C 6.05 g/m*3 5 C 0 km/h
568 06-12-2008 17:37:01 5 C 6.12 g/m*3 5 C 0 km/h
569 06-12-2008 17:49:01 5 C 6.12 g/m*3 5 C 0 km/h
570 06-12-2008 18:01:00 5 C 6.12 g/m*3 5 C 0 km/h
571 06-12-2008 18:13:00 4.9 C 6.14 g/m*3 4.9 C 0 km/h
572 06-12-2008 18:25:00 4.9 C 6.21 g/m*3 4.9 C 0 km/h
573 06-12-2008 18:37:01 4.9 C 6.21 g/m*3 4.9 C 0 km/h
574 06-12-2008 18:49:01 4.8 C 6.17 g/m*3 4.8 C 0 km/h
575 06-12-2008 19:01:00 4.7 C 6.13 g/m*3 4.7 C 0 km/h
Sensor: Nr:Datum:Temp:Abs-Feuchte:Windchill:Wind:
Aussen-T/F 576 06-12-2008 19:13:00 4.5 C 6.05 g/m*3 4.5 C 0 km/h
577 06-12-2008 19:25:00 4.3 C 6.03 g/m*3 4.3 C 0 km/h
578 06-12-2008 19:37:00 4 C 5.85 g/m*3 4 C 0 km/h
579 06-12-2008 19:49:00 4 C 5.85 g/m*3 4 C 0 km/h
580 06-12-2008 20:01:00 4.3 C 6.03 g/m*3 4.3 C 0 km/h
581 06-12-2008 20:13:00 4.4 C 6.14 g/m*3 4.4 C 0 km/h
582 06-12-2008 20:25:59 4.4 C 6.14 g/m*3 4.4 C 0 km/h
583 06-12-2008 20:37:00 4.4 C 6.14 g/m*3 4.4 C 0 km/h
584 06-12-2008 20:49:59 4.1 C 6.02 g/m*3 4.1 C 0 km/h
585 06-12-2008 21:01:59 3.9 C 6 g/m*3 3.9 C 0 km/h
586 06-12-2008 21:13:59 4 C 5.98 g/m*3 4 C 0 km/h
587 06-12-2008 21:25:59 4.1 C 6.08 g/m*3 4.1 C 0 km/h
588 06-12-2008 21:37:59 4.2 C 6.12 g/m*3 4.2 C 0 km/h
589 06-12-2008 21:49:58 4.3 C 6.16 g/m*3 4.3 C 0 km/h
590 06-12-2008 22:01:58 4.3 C 6.16 g/m*3 4.3 C 0 km/h
591 06-12-2008 22:13:58 4.4 C 6.2 g/m*3 4.4 C 0 km/h
592 06-12-2008 22:25:58 4.4 C 6.2 g/m*3 4.4 C 0 km/h
593 06-12-2008 22:37:58 4.4 C 6.2 g/m*3 4.4 C 0 km/h
594 06-12-2008 22:49:58 4.4 C 6.2 g/m*3 4.4 C 0 km/h
595 06-12-2008 23:02:58 4.4 C 6.2 g/m*3 4.4 C 0 km/h
596 06-12-2008 23:14:58 4.4 C 6.2 g/m*3 4.4 C 0 km/h
597 06-12-2008 23:26:58 4.4 C 6.2 g/m*3 4.4 C 0 km/h
598 06-12-2008 23:38:58 4.3 C 6.16 g/m*3 4.3 C 0 km/h
599 06-12-2008 23:50:58 4.3 C 6.16 g/m*3 4.3 C 0 km/h

Legende:
   Min
   Max


Maximal/Minimal-Werte vom 02.12.2008 - 06.12.2008

Sensor Min Max Avg
Temp
(Aussen-T/F)
-1.1 °C
04-12-2008  04:59:03
7.5 °C
05-12-2008  14:00:02
3.32 °C
Abs-Feuchte
(Aussen-T/F)
3.91 g/m*3
04-12-2008  04:59:03
6.42 g/m*3
05-12-2008  03:36:04
5.37 g/m*3
Windchill
(Aussen-T/F)
-1.1 C
04-12-2008  04:59:03
7.5 C
05-12-2008  14:00:02
3.32 C

Die Daten stammen von einer Davis Vantage Pro 2 Wetter-Station und werden unter Linux mit der Software wview2wettercgi und aufbereitet. Alle Angaben erfolgen ohne Gewähr für ihre Vollständigkeit oder Richtigkeit.
Kontakt: Rainer Krienke krienke@uni-koblenz.de . Meine Webseiten an der Uni Koblenz oder privat.
Version: $Revision: 0.78 $